Date,TemperatureHighF,TemperatureAvgF,TemperatureLowF,DewpointHighF,DewpointAvgF,DewpointLowF,HumidityHigh,HumidityAvg,HumidityLow,PressureMaxIn,PressureMinIn,WindSpeedMaxMPH,WindSpeedAvgMPH,GustSpeedMaxMPH,PrecipitationSumIn
2013-3-1,39.7,36.8,34.3,32.0,30.0,27.0,88,77,67,30.06,30.00,12,4,0,0.00
2013-3-2,36.4,33.9,31.5,31.0,28.8,25.0,90,82,69,30.12,30.00,15,8,0,0.02
2013-3-3,42.2,33.5,28.2,26.0,21.4,17.0,81,63,37,30.15,30.08,18,7,0,0.00
2013-3-4,57.6,44.9,28.3,41.0,28.4,22.0,85,56,34,30.16,29.89,10,3,0,0.00
2013-3-5,62.5,51.2,36.4,57.0,44.8,31.0,91,79,65,29.99,29.64,29,8,0,0.21
2013-3-6,42.6,37.2,33.7,31.0,26.2,20.0,78,65,55,30.25,30.00,23,10,0,0.00
2013-3-7,52.0,39.6,31.2,34.0,30.0,26.0,84,70,47,30.32,30.23,13,4,0,0.00
2013-3-8,61.3,44.1,32.5,34.0,29.1,19.0,86,61,21,30.35,30.22,9,3,0,0.00
2013-3-9,65.5,51.9,37.6,38.0,34.6,32.0,83,55,34,30.25,30.05,9,1,0,0.00
2013-3-10,74.4,62.5,49.0,50.0,40.6,34.0,61,46,33,30.08,29.86,15,5,0,0.00
2013-3-11,64.5,52.9,40.8,53.0,46.5,35.0,96,80,59,29.93,29.75,14,5,0,1.27
2013-3-12,54.0,43.6,34.8,36.0,33.0,30.0,85,67,46,30.14,29.93,20,6,0,0.00
2013-3-13,49.5,42.7,34.0,33.0,27.5,22.0,82,57,35,30.34,30.12,27,8,0,0.00
2013-3-14,55.6,44.1,30.8,30.0,21.8,14.0,68,44,22,30.41,30.23,13,3,0,0.00
2013-3-15,75.1,56.0,33.6,46.0,38.1,27.0,81,54,33,30.23,29.92,19,4,0,0.00
2013-3-16,75.0,64.2,54.9,49.0,44.7,42.0,75,51,35,29.95,29.82,16,7,0,0.00
2013-3-17,68.8,60.5,50.6,55.0,50.6,46.0,86,71,52,29.94,29.82,14,3,0,0.00
2013-3-18,71.6,60.6,53.2,61.0,55.9,51.0,96,85,62,29.87,29.69,28,6,0,0.42
2013-3-19,60.1,51.8,40.6,51.0,36.2,23.0,87,58,36,30.11,29.88,16,6,0,0.01
2013-3-20,56.6,48.5,41.1,30.0,25.0,10.0,65,41,21,30.13,29.94,19,6,0,0.00
2013-3-21,46.0,38.4,28.8,31.0,19.3,10.0,73,48,27,30.07,29.92,14,6,0,0.00
2013-3-22,48.0,42.3,36.5,41.0,31.2,24.0,91,66,49,30.04,29.93,9,1,0,0.23
2013-3-23,53.1,48.1,42.7,50.0,45.7,40.0,95,91,85,29.95,29.66,13,4,0,1.19
2013-3-24,62.7,51.9,39.8,55.0,45.8,28.0,96,80,58,29.77,29.44,24,6,0,1.06
2013-3-25,39.7,36.4,34.0,29.0,25.1,23.0,77,64,53,30.13,29.78,21,10,0,0.00
2013-3-26,39.6,36.2,32.7,29.0,26.9,25.0,77,69,61,30.33,30.12,18,8,0,0.00
2013-3-27,52.1,40.8,28.2,31.0,28.0,25.0,89,63,36,30.39,30.27,12,3,0,0.00
2013-3-28,61.2,46.6,32.4,38.0,32.6,28.0,92,63,32,30.36,30.23,10,2,0,0.00
2013-3-29,68.4,52.4,36.9,48.0,37.9,34.0,93,63,32,30.28,30.10,12,2,0,0.00
2013-3-30,70.2,55.2,48.5,55.0,47.9,41.0,97,78,49,30.14,29.94,7,1,0,0.75
2013-3-31,68.3,59.9,55.6,59.0,56.2,54.0,96,88,65,29.94,29.81,14,2,0,0.31